Location: Capvern
(43.1036°N, 0.3160°E)
Time: 23:00:06
(UTC+00:00)

Cosmos 1535 Rocket - Pass Details

Date: 16 October 2021
Orbit: 948 x 1004 km, 83.0° (Epoch: 04 December)

Event Time Altitude Azimuth Distance (km) Brightness Sun altitude
Rises 18:52:26 0° 178° (S) 3,638 7.4 -18.7°
Reaches altitude 10° 18:54:55 10° 177° (S) 2,703 6.7 -19.1°
Maximum altitude 19:01:05 71° 94° (E) 1,033 4.4 -20.3°
Drops below altitude 10° 19:07:22 10° 12° (NNE) 2,760 6.8 -21.4°
Sets 19:09:55 0° 10° (N) 3,720 7.5 -21.9°
